Find Starlink 31472

NORAD ID: 59730 Int'l Des: 2024-090 Owner: SPXS Country: US Constellation: starlink operational
LEOCIRCULAR

リアルタイム位置

3D地球を読み込み中...

Starlink 31472について

説明を読み込み中...

次回通過

Passes for default location (London). Set your location on the main map for personalized predictions.

高度履歴

Loading altitude history...

軌道要素

1 59730U 24090A 26124.74727684 .00001937 00000-0 79911-4 0 9990
2 59730 43.0017 226.8919 0000955 267.8705 92.2037 15.27572054112018
Epoch: May 4, 2026 • Age: 8 hours

現在のステータス

高度 483.3 km
速度 7.63 km/s
衛星直下点 24.60°N, 2.12°E
打ち上げ日 May 13, 2024
運用期間 1.9 years
タイプ internet

技術仕様

分類 Payload
質量 730.00 kg
乾燥質量 700.00 kg
総質量 730.00 kg
長さ 0.30 m
直径 4.10 m
スパン 29.00 m
形状 Box + pan
製造者 SPXS
バスタイプ Starlink V2M
フェーズステータス In Orbit
所有者/国 SPXS/US

Most Searched